Index of /20260427/WXO-DD/model_rdps/10km/18/028
Name Last modified Size Description
Parent Directory -
20260427T18Z_MSC_RDPS_AbsoluteVorticity_IsbL-0250_RLatLon0.09_PT028H.grib2 2026-04-27 20:48 629K
20260427T18Z_MSC_RDPS_AbsoluteVorticity_IsbL-0500_RLatLon0.09_PT028H.grib2 2026-04-27 20:48 596K
20260427T18Z_MSC_RDPS_AbsoluteVorticity_IsbL-0700_RLatLon0.09_PT028H.grib2 2026-04-27 20:48 620K
20260427T18Z_MSC_RDPS_AbsoluteVorticity_IsbL-0850_RLatLon0.09_PT028H.grib2 2026-04-27 20:48 779K
20260427T18Z_MSC_RDPS_AirTemp_AGL-120m_RLatLon0.09_PT028H.grib2 2026-04-27 20:48 393K
20260427T18Z_MSC_RDPS_AirTemp_AGL-2m_RLatLon0.09_PT028H.grib2 2026-04-27 20:48 627K
20260427T18Z_MSC_RDPS_AirTemp_AGL-40m_RLatLon0.09_PT028H.grib2 2026-04-27 20:48 402K
20260427T18Z_MSC_RDPS_AirTemp_AGL-80m_RLatLon0.09_PT028H.grib2 2026-04-27 20:48 396K
20260427T18Z_MSC_RDPS_AirTemp_IsbL-0001_RLatLon0.09_PT028H.grib2 2026-04-27 20:48 278K
20260427T18Z_MSC_RDPS_AirTemp_IsbL-0005_RLatLon0.09_PT028H.grib2 2026-04-27 20:48 298K
20260427T18Z_MSC_RDPS_AirTemp_IsbL-0010_RLatLon0.09_PT028H.grib2 2026-04-27 20:48 308K
20260427T18Z_MSC_RDPS_AirTemp_IsbL-0020_RLatLon0.09_PT028H.grib2 2026-04-27 20:48 322K
20260427T18Z_MSC_RDPS_AirTemp_IsbL-0030_RLatLon0.09_PT028H.grib2 2026-04-27 20:48 344K
20260427T18Z_MSC_RDPS_AirTemp_IsbL-0050_RLatLon0.09_PT028H.grib2 2026-04-27 20:48 318K
20260427T18Z_MSC_RDPS_AirTemp_IsbL-0100_RLatLon0.09_PT028H.grib2 2026-04-27 20:48 435K
20260427T18Z_MSC_RDPS_AirTemp_IsbL-0150_RLatLon0.09_PT028H.grib2 2026-04-27 20:48 435K
20260427T18Z_MSC_RDPS_AirTemp_IsbL-0175_RLatLon0.09_PT028H.grib2 2026-04-27 20:48 426K
20260427T18Z_MSC_RDPS_AirTemp_IsbL-0200_RLatLon0.09_PT028H.grib2 2026-04-27 20:48 429K
20260427T18Z_MSC_RDPS_AirTemp_IsbL-0225_RLatLon0.09_PT028H.grib2 2026-04-27 20:48 430K
20260427T18Z_MSC_RDPS_AirTemp_IsbL-0250_RLatLon0.09_PT028H.grib2 2026-04-27 20:48 438K
20260427T18Z_MSC_RDPS_AirTemp_IsbL-0275_RLatLon0.09_PT028H.grib2 2026-04-27 20:48 417K
20260427T18Z_MSC_RDPS_AirTemp_IsbL-0300_RLatLon0.09_PT028H.grib2 2026-04-27 20:48 422K
20260427T18Z_MSC_RDPS_AirTemp_IsbL-0350_RLatLon0.09_PT028H.grib2 2026-04-27 20:48 432K
20260427T18Z_MSC_RDPS_AirTemp_IsbL-0400_RLatLon0.09_PT028H.grib2 2026-04-27 20:48 433K
20260427T18Z_MSC_RDPS_AirTemp_IsbL-0450_RLatLon0.09_PT028H.grib2 2026-04-27 20:48 439K
20260427T18Z_MSC_RDPS_AirTemp_IsbL-0500_RLatLon0.09_PT028H.grib2 2026-04-27 20:48 415K
20260427T18Z_MSC_RDPS_AirTemp_IsbL-0550_RLatLon0.09_PT028H.grib2 2026-04-27 20:48 432K
20260427T18Z_MSC_RDPS_AirTemp_IsbL-0600_RLatLon0.09_PT028H.grib2 2026-04-27 20:48 450K
20260427T18Z_MSC_RDPS_AirTemp_IsbL-0650_RLatLon0.09_PT028H.grib2 2026-04-27 20:48 464K
20260427T18Z_MSC_RDPS_AirTemp_IsbL-0700_RLatLon0.09_PT028H.grib2 2026-04-27 20:48 381K
20260427T18Z_MSC_RDPS_AirTemp_IsbL-0750_RLatLon0.09_PT028H.grib2 2026-04-27 20:48 414K
20260427T18Z_MSC_RDPS_AirTemp_IsbL-0800_RLatLon0.09_PT028H.grib2 2026-04-27 20:48 456K
20260427T18Z_MSC_RDPS_AirTemp_IsbL-0850_RLatLon0.09_PT028H.grib2 2026-04-27 20:48 502K
20260427T18Z_MSC_RDPS_AirTemp_IsbL-0875_RLatLon0.09_PT028H.grib2 2026-04-27 20:48 520K
20260427T18Z_MSC_RDPS_AirTemp_IsbL-0900_RLatLon0.09_PT028H.grib2 2026-04-27 20:48 528K
20260427T18Z_MSC_RDPS_AirTemp_IsbL-0925_RLatLon0.09_PT028H.grib2 2026-04-27 20:48 538K
20260427T18Z_MSC_RDPS_AirTemp_IsbL-0950_RLatLon0.09_PT028H.grib2 2026-04-27 20:48 539K
20260427T18Z_MSC_RDPS_AirTemp_IsbL-0970_RLatLon0.09_PT028H.grib2 2026-04-27 20:48 532K
20260427T18Z_MSC_RDPS_AirTemp_IsbL-0985_RLatLon0.09_PT028H.grib2 2026-04-27 20:48 523K
20260427T18Z_MSC_RDPS_AirTemp_IsbL-1000_RLatLon0.09_PT028H.grib2 2026-04-27 20:48 510K
20260427T18Z_MSC_RDPS_AirTemp_IsbL-1015_RLatLon0.09_PT028H.grib2 2026-04-27 20:48 508K
20260427T18Z_MSC_RDPS_Albedo_Sfc_RLatLon0.09_PT028H.grib2 2026-04-27 20:48 159K
20260427T18Z_MSC_RDPS_CAPE_Sfc_RLatLon0.09_PT028H.grib2 2026-04-27 20:48 1.7M
20260427T18Z_MSC_RDPS_CIN_Sfc_RLatLon0.09_PT028H.grib2 2026-04-27 20:48 1.2M
20260427T18Z_MSC_RDPS_CloudWater_EAtm_RLatLon0.09_PT028H.grib2 2026-04-27 20:48 223K
20260427T18Z_MSC_RDPS_ConvectivePrecip-Accum_Sfc_RLatLon0.09_PT028H.grib2 2026-04-27 20:48 1.0M
20260427T18Z_MSC_RDPS_DewPointDepression_AGL-2m_RLatLon0.09_PT028H.grib2 2026-04-27 20:48 417K
20260427T18Z_MSC_RDPS_DewPointDepression_IsbL-0001_RLatLon0.09_PT028H.grib2 2026-04-27 20:48 193
20260427T18Z_MSC_RDPS_DewPointDepression_IsbL-0005_RLatLon0.09_PT028H.grib2 2026-04-27 20:48 193
20260427T18Z_MSC_RDPS_DewPointDepression_IsbL-0010_RLatLon0.09_PT028H.grib2 2026-04-27 20:48 193
20260427T18Z_MSC_RDPS_DewPointDepression_IsbL-0020_RLatLon0.09_PT028H.grib2 2026-04-27 20:48 193
20260427T18Z_MSC_RDPS_DewPointDepression_IsbL-0030_RLatLon0.09_PT028H.grib2 2026-04-27 20:48 193
20260427T18Z_MSC_RDPS_DewPointDepression_IsbL-0050_RLatLon0.09_PT028H.grib2 2026-04-27 20:48 95K
20260427T18Z_MSC_RDPS_DewPointDepression_IsbL-0100_RLatLon0.09_PT028H.grib2 2026-04-27 20:48 132K
20260427T18Z_MSC_RDPS_DewPointDepression_IsbL-0150_RLatLon0.09_PT028H.grib2 2026-04-27 20:48 152K
20260427T18Z_MSC_RDPS_DewPointDepression_IsbL-0175_RLatLon0.09_PT028H.grib2 2026-04-27 20:48 183K
20260427T18Z_MSC_RDPS_DewPointDepression_IsbL-0200_RLatLon0.09_PT028H.grib2 2026-04-27 20:48 220K
20260427T18Z_MSC_RDPS_DewPointDepression_IsbL-0225_RLatLon0.09_PT028H.grib2 2026-04-27 20:48 270K
20260427T18Z_MSC_RDPS_DewPointDepression_IsbL-0250_RLatLon0.09_PT028H.grib2 2026-04-27 20:48 311K
20260427T18Z_MSC_RDPS_DewPointDepression_IsbL-0275_RLatLon0.09_PT028H.grib2 2026-04-27 20:48 315K
20260427T18Z_MSC_RDPS_DewPointDepression_IsbL-0300_RLatLon0.09_PT028H.grib2 2026-04-27 20:48 332K
20260427T18Z_MSC_RDPS_DewPointDepression_IsbL-0350_RLatLon0.09_PT028H.grib2 2026-04-27 20:48 337K
20260427T18Z_MSC_RDPS_DewPointDepression_IsbL-0400_RLatLon0.09_PT028H.grib2 2026-04-27 20:48 349K
20260427T18Z_MSC_RDPS_DewPointDepression_IsbL-0450_RLatLon0.09_PT028H.grib2 2026-04-27 20:48 357K
20260427T18Z_MSC_RDPS_DewPointDepression_IsbL-0500_RLatLon0.09_PT028H.grib2 2026-04-27 20:48 363K
20260427T18Z_MSC_RDPS_DewPointDepression_IsbL-0550_RLatLon0.09_PT028H.grib2 2026-04-27 20:48 375K
20260427T18Z_MSC_RDPS_DewPointDepression_IsbL-0600_RLatLon0.09_PT028H.grib2 2026-04-27 20:48 385K
20260427T18Z_MSC_RDPS_DewPointDepression_IsbL-0650_RLatLon0.09_PT028H.grib2 2026-04-27 20:48 390K
20260427T18Z_MSC_RDPS_DewPointDepression_IsbL-0700_RLatLon0.09_PT028H.grib2 2026-04-27 20:48 403K
20260427T18Z_MSC_RDPS_DewPointDepression_IsbL-0750_RLatLon0.09_PT028H.grib2 2026-04-27 20:48 424K
20260427T18Z_MSC_RDPS_DewPointDepression_IsbL-0800_RLatLon0.09_PT028H.grib2 2026-04-27 20:48 456K
20260427T18Z_MSC_RDPS_DewPointDepression_IsbL-0850_RLatLon0.09_PT028H.grib2 2026-04-27 20:48 476K
20260427T18Z_MSC_RDPS_DewPointDepression_IsbL-0875_RLatLon0.09_PT028H.grib2 2026-04-27 20:48 476K
20260427T18Z_MSC_RDPS_DewPointDepression_IsbL-0900_RLatLon0.09_PT028H.grib2 2026-04-27 20:48 466K
20260427T18Z_MSC_RDPS_DewPointDepression_IsbL-0925_RLatLon0.09_PT028H.grib2 2026-04-27 20:48 456K
20260427T18Z_MSC_RDPS_DewPointDepression_IsbL-0950_RLatLon0.09_PT028H.grib2 2026-04-27 20:48 446K
20260427T18Z_MSC_RDPS_DewPointDepression_IsbL-0970_RLatLon0.09_PT028H.grib2 2026-04-27 20:48 435K
20260427T18Z_MSC_RDPS_DewPointDepression_IsbL-0985_RLatLon0.09_PT028H.grib2 2026-04-27 20:48 429K
20260427T18Z_MSC_RDPS_DewPointDepression_IsbL-1000_RLatLon0.09_PT028H.grib2 2026-04-27 20:48 425K
20260427T18Z_MSC_RDPS_DewPointDepression_IsbL-1015_RLatLon0.09_PT028H.grib2 2026-04-27 20:48 419K
20260427T18Z_MSC_RDPS_DewPoint_AGL-2m_RLatLon0.09_PT028H.grib2 2026-04-27 20:48 312K
20260427T18Z_MSC_RDPS_DownwardLongwaveRadiationFlux-Accum_Sfc_RLatLon0.09_PT028H.grib2 2026-04-27 20:48 458K
20260427T18Z_MSC_RDPS_DownwardShortwaveRadiationFlux-Accum_NTAtm_RLatLon0.09_PT028H.grib2 2026-04-27 20:48 121K
20260427T18Z_MSC_RDPS_DownwardShortwaveRadiationFlux-Accum_Sfc_RLatLon0.09_PT028H.grib2 2026-04-27 20:48 540K
20260427T18Z_MSC_RDPS_FreezingRain-Accum1h_Sfc_RLatLon0.09_PT028H.grib2 2026-04-27 20:48 16K
20260427T18Z_MSC_RDPS_FreezingRain-Accum_Sfc_RLatLon0.09_PT028H.grib2 2026-04-27 20:48 107K
20260427T18Z_MSC_RDPS_GeopotentialHeight_IsbL-0001_RLatLon0.09_PT028H.grib2 2026-04-27 20:48 276K
20260427T18Z_MSC_RDPS_GeopotentialHeight_IsbL-0005_RLatLon0.09_PT028H.grib2 2026-04-27 20:48 315K
20260427T18Z_MSC_RDPS_GeopotentialHeight_IsbL-0010_RLatLon0.09_PT028H.grib2 2026-04-27 20:48 344K
20260427T18Z_MSC_RDPS_GeopotentialHeight_IsbL-0020_RLatLon0.09_PT028H.grib2 2026-04-27 20:48 310K
20260427T18Z_MSC_RDPS_GeopotentialHeight_IsbL-0030_RLatLon0.09_PT028H.grib2 2026-04-27 20:48 312K
20260427T18Z_MSC_RDPS_GeopotentialHeight_IsbL-0050_RLatLon0.09_PT028H.grib2 2026-04-27 20:48 345K
20260427T18Z_MSC_RDPS_GeopotentialHeight_IsbL-0100_RLatLon0.09_PT028H.grib2 2026-04-27 20:48 293K
20260427T18Z_MSC_RDPS_GeopotentialHeight_IsbL-0150_RLatLon0.09_PT028H.grib2 2026-04-27 20:48 233K
20260427T18Z_MSC_RDPS_GeopotentialHeight_IsbL-0175_RLatLon0.09_PT028H.grib2 2026-04-27 20:48 267K
20260427T18Z_MSC_RDPS_GeopotentialHeight_IsbL-0200_RLatLon0.09_PT028H.grib2 2026-04-27 20:48 270K
20260427T18Z_MSC_RDPS_GeopotentialHeight_IsbL-0225_RLatLon0.09_PT028H.grib2 2026-04-27 20:48 271K
20260427T18Z_MSC_RDPS_GeopotentialHeight_IsbL-0250_RLatLon0.09_PT028H.grib2 2026-04-27 20:48 271K
20260427T18Z_MSC_RDPS_GeopotentialHeight_IsbL-0275_RLatLon0.09_PT028H.grib2 2026-04-27 20:48 270K
20260427T18Z_MSC_RDPS_GeopotentialHeight_IsbL-0300_RLatLon0.09_PT028H.grib2 2026-04-27 20:48 270K
20260427T18Z_MSC_RDPS_GeopotentialHeight_IsbL-0350_RLatLon0.09_PT028H.grib2 2026-04-27 20:48 236K
20260427T18Z_MSC_RDPS_GeopotentialHeight_IsbL-0400_RLatLon0.09_PT028H.grib2 2026-04-27 20:48 232K
20260427T18Z_MSC_RDPS_GeopotentialHeight_IsbL-0450_RLatLon0.09_PT028H.grib2 2026-04-27 20:48 300K
20260427T18Z_MSC_RDPS_GeopotentialHeight_IsbL-0500_RLatLon0.09_PT028H.grib2 2026-04-27 20:48 295K
20260427T18Z_MSC_RDPS_GeopotentialHeight_IsbL-0550_RLatLon0.09_PT028H.grib2 2026-04-27 20:48 291K
20260427T18Z_MSC_RDPS_GeopotentialHeight_IsbL-0600_RLatLon0.09_PT028H.grib2 2026-04-27 20:48 287K
20260427T18Z_MSC_RDPS_GeopotentialHeight_IsbL-0650_RLatLon0.09_PT028H.grib2 2026-04-27 20:48 259K
20260427T18Z_MSC_RDPS_GeopotentialHeight_IsbL-0700_RLatLon0.09_PT028H.grib2 2026-04-27 20:48 257K
20260427T18Z_MSC_RDPS_GeopotentialHeight_IsbL-0750_RLatLon0.09_PT028H.grib2 2026-04-27 20:48 341K
20260427T18Z_MSC_RDPS_GeopotentialHeight_IsbL-0800_RLatLon0.09_PT028H.grib2 2026-04-27 20:48 348K
20260427T18Z_MSC_RDPS_GeopotentialHeight_IsbL-0850_RLatLon0.09_PT028H.grib2 2026-04-27 20:48 356K
20260427T18Z_MSC_RDPS_GeopotentialHeight_IsbL-0875_RLatLon0.09_PT028H.grib2 2026-04-27 20:48 393K
20260427T18Z_MSC_RDPS_GeopotentialHeight_IsbL-0900_RLatLon0.09_PT028H.grib2 2026-04-27 20:48 398K
20260427T18Z_MSC_RDPS_GeopotentialHeight_IsbL-0925_RLatLon0.09_PT028H.grib2 2026-04-27 20:48 402K
20260427T18Z_MSC_RDPS_GeopotentialHeight_IsbL-0950_RLatLon0.09_PT028H.grib2 2026-04-27 20:48 405K
20260427T18Z_MSC_RDPS_GeopotentialHeight_IsbL-0970_RLatLon0.09_PT028H.grib2 2026-04-27 20:48 411K
20260427T18Z_MSC_RDPS_GeopotentialHeight_IsbL-0985_RLatLon0.09_PT028H.grib2 2026-04-27 20:48 420K
20260427T18Z_MSC_RDPS_GeopotentialHeight_IsbL-1000_RLatLon0.09_PT028H.grib2 2026-04-27 20:48 433K
20260427T18Z_MSC_RDPS_GeopotentialHeight_IsbL-1015_RLatLon0.09_PT028H.grib2 2026-04-27 20:48 411K
20260427T18Z_MSC_RDPS_Humidex_Sfc_RLatLon0.09_PT028H.grib2 2026-04-27 20:48 2.2M
20260427T18Z_MSC_RDPS_IcePellets-Accum1h_Sfc_RLatLon0.09_PT028H.grib2 2026-04-27 20:48 8.0K
20260427T18Z_MSC_RDPS_IcePellets-Accum_Sfc_RLatLon0.09_PT028H.grib2 2026-04-27 20:48 20K
20260427T18Z_MSC_RDPS_KIndex_Sfc_RLatLon0.09_PT028H.grib2 2026-04-27 20:48 2.5M
20260427T18Z_MSC_RDPS_LatentHeatNetFlux_Sfc_RLatLon0.09_PT028H.grib2 2026-04-27 20:48 295K
20260427T18Z_MSC_RDPS_LiftedIndex-MU-VT_IsbL-0500_RLatLon0.09_PT028H.grib2 2026-04-27 20:48 2.4M
20260427T18Z_MSC_RDPS_NetLongwaveRadiationFlux-Accum_Sfc_RLatLon0.09_PT028H.grib2 2026-04-27 20:48 610K
20260427T18Z_MSC_RDPS_NetShortwaveRadiationFlux-Accum_Sfc_RLatLon0.09_PT028H.grib2 2026-04-27 20:48 679K
20260427T18Z_MSC_RDPS_PlanetaryBoundaryLayerHeight_Sfc_RLatLon0.09_PT028H.grib2 2026-04-27 20:48 1.0M
20260427T18Z_MSC_RDPS_Precip-Accum1h_Sfc_RLatLon0.09_PT028H.grib2 2026-04-27 20:48 1.2M
20260427T18Z_MSC_RDPS_Precip-Accum_Sfc_RLatLon0.09_PT028H.grib2 2026-04-27 20:48 1.7M
20260427T18Z_MSC_RDPS_PrecipRate_Sfc_RLatLon0.09_PT028H.grib2 2026-04-27 20:48 167K
20260427T18Z_MSC_RDPS_PrecipType-Instant_Sfc_RLatLon0.09_PT028H.grib2 2026-04-27 20:48 565K
20260427T18Z_MSC_RDPS_Pressure-Trend3h_Sfc_RLatLon0.09_PT028H.grib2 2026-04-27 20:48 1.2M
20260427T18Z_MSC_RDPS_Pressure_MSL_RLatLon0.09_PT028H.grib2 2026-04-27 20:48 330K
20260427T18Z_MSC_RDPS_Pressure_PVU-1.5_RLatLon0.09_PT028H.grib2 2026-04-27 20:48 2.3M
20260427T18Z_MSC_RDPS_Pressure_PVU-1_RLatLon0.09_PT028H.grib2 2026-04-27 20:48 2.4M
20260427T18Z_MSC_RDPS_Pressure_PVU-2_RLatLon0.09_PT028H.grib2 2026-04-27 20:48 2.4M
20260427T18Z_MSC_RDPS_Pressure_Sfc_RLatLon0.09_PT028H.grib2 2026-04-27 20:48 500K
20260427T18Z_MSC_RDPS_RadiativeTemp_Sfc_RLatLon0.09_PT028H.grib2 2026-04-27 20:48 322K
20260427T18Z_MSC_RDPS_Rain-Accum1h_Sfc_RLatLon0.09_PT028H.grib2 2026-04-27 20:48 601K
20260427T18Z_MSC_RDPS_Rain-Accum_Sfc_RLatLon0.09_PT028H.grib2 2026-04-27 20:48 1.3M
20260427T18Z_MSC_RDPS_RelativeHumidity_AGL-2m_RLatLon0.09_PT028H.grib2 2026-04-27 20:48 1.0M
20260427T18Z_MSC_RDPS_RelativeHumidity_IsbL-0010_RLatLon0.09_PT028H.grib2 2026-04-27 20:48 624K
20260427T18Z_MSC_RDPS_RelativeHumidity_IsbL-0020_RLatLon0.09_PT028H.grib2 2026-04-27 20:48 649K
20260427T18Z_MSC_RDPS_RelativeHumidity_IsbL-0030_RLatLon0.09_PT028H.grib2 2026-04-27 20:48 610K
20260427T18Z_MSC_RDPS_RelativeHumidity_IsbL-0050_RLatLon0.09_PT028H.grib2 2026-04-27 20:48 250K
20260427T18Z_MSC_RDPS_RelativeHumidity_IsbL-0100_RLatLon0.09_PT028H.grib2 2026-04-27 20:48 284K
20260427T18Z_MSC_RDPS_RelativeHumidity_IsbL-0150_RLatLon0.09_PT028H.grib2 2026-04-27 20:48 422K
20260427T18Z_MSC_RDPS_RelativeHumidity_IsbL-0175_RLatLon0.09_PT028H.grib2 2026-04-27 20:48 489K
20260427T18Z_MSC_RDPS_RelativeHumidity_IsbL-0200_RLatLon0.09_PT028H.grib2 2026-04-27 20:48 557K
20260427T18Z_MSC_RDPS_RelativeHumidity_IsbL-0225_RLatLon0.09_PT028H.grib2 2026-04-27 20:48 627K
20260427T18Z_MSC_RDPS_RelativeHumidity_IsbL-0250_RLatLon0.09_PT028H.grib2 2026-04-27 20:48 696K
20260427T18Z_MSC_RDPS_RelativeHumidity_IsbL-0275_RLatLon0.09_PT028H.grib2 2026-04-27 20:48 726K
20260427T18Z_MSC_RDPS_RelativeHumidity_IsbL-0300_RLatLon0.09_PT028H.grib2 2026-04-27 20:48 769K
20260427T18Z_MSC_RDPS_RelativeHumidity_IsbL-0350_RLatLon0.09_PT028H.grib2 2026-04-27 20:48 787K
20260427T18Z_MSC_RDPS_RelativeHumidity_IsbL-0400_RLatLon0.09_PT028H.grib2 2026-04-27 20:48 803K
20260427T18Z_MSC_RDPS_RelativeHumidity_IsbL-0450_RLatLon0.09_PT028H.grib2 2026-04-27 20:48 807K
20260427T18Z_MSC_RDPS_RelativeHumidity_IsbL-0500_RLatLon0.09_PT028H.grib2 2026-04-27 20:48 814K
20260427T18Z_MSC_RDPS_RelativeHumidity_IsbL-0550_RLatLon0.09_PT028H.grib2 2026-04-27 20:48 831K
20260427T18Z_MSC_RDPS_RelativeHumidity_IsbL-0600_RLatLon0.09_PT028H.grib2 2026-04-27 20:48 849K
20260427T18Z_MSC_RDPS_RelativeHumidity_IsbL-0650_RLatLon0.09_PT028H.grib2 2026-04-27 20:48 859K
20260427T18Z_MSC_RDPS_RelativeHumidity_IsbL-0700_RLatLon0.09_PT028H.grib2 2026-04-27 20:48 893K
20260427T18Z_MSC_RDPS_RelativeHumidity_IsbL-0750_RLatLon0.09_PT028H.grib2 2026-04-27 20:48 930K
20260427T18Z_MSC_RDPS_RelativeHumidity_IsbL-0800_RLatLon0.09_PT028H.grib2 2026-04-27 20:48 1.0M
20260427T18Z_MSC_RDPS_RelativeHumidity_IsbL-0850_RLatLon0.09_PT028H.grib2 2026-04-27 20:48 1.0M
20260427T18Z_MSC_RDPS_RelativeHumidity_IsbL-0875_RLatLon0.09_PT028H.grib2 2026-04-27 20:48 1.1M
20260427T18Z_MSC_RDPS_RelativeHumidity_IsbL-0900_RLatLon0.09_PT028H.grib2 2026-04-27 20:48 1.1M
20260427T18Z_MSC_RDPS_RelativeHumidity_IsbL-0925_RLatLon0.09_PT028H.grib2 2026-04-27 20:48 1.1M
20260427T18Z_MSC_RDPS_RelativeHumidity_IsbL-0950_RLatLon0.09_PT028H.grib2 2026-04-27 20:48 1.1M
20260427T18Z_MSC_RDPS_RelativeHumidity_IsbL-0970_RLatLon0.09_PT028H.grib2 2026-04-27 20:48 1.0M
20260427T18Z_MSC_RDPS_RelativeHumidity_IsbL-0985_RLatLon0.09_PT028H.grib2 2026-04-27 20:48 1.0M
20260427T18Z_MSC_RDPS_RelativeHumidity_IsbL-1000_RLatLon0.09_PT028H.grib2 2026-04-27 20:48 1.0M
20260427T18Z_MSC_RDPS_RelativeHumidity_IsbL-1015_RLatLon0.09_PT028H.grib2 2026-04-27 20:48 1.0M
20260427T18Z_MSC_RDPS_Runoff-Accum_Sfc_RLatLon0.09_PT028H.grib2 2026-04-27 20:48 55K
20260427T18Z_MSC_RDPS_SWEATIndex_Sfc_RLatLon0.09_PT028H.grib2 2026-04-27 20:48 2.4M
20260427T18Z_MSC_RDPS_SeeingIndex_EAtm_RLatLon0.09_PT028H.grib2 2026-04-27 20:48 1.0M
20260427T18Z_MSC_RDPS_SensibleHeatNetFlux_Sfc_RLatLon0.09_PT028H.grib2 2026-04-27 20:48 350K
20260427T18Z_MSC_RDPS_ShowalterIndex_IsbL-0500_RLatLon0.09_PT028H.grib2 2026-04-27 20:48 2.6M
20260427T18Z_MSC_RDPS_SkyTransparencyIndex_EAtm_RLatLon0.09_PT028H.grib2 2026-04-27 20:48 707K
20260427T18Z_MSC_RDPS_Snow-Accum1h_Sfc_RLatLon0.09_PT028H.grib2 2026-04-27 20:48 544K
20260427T18Z_MSC_RDPS_Snow-Accum_Sfc_RLatLon0.09_PT028H.grib2 2026-04-27 20:48 755K
20260427T18Z_MSC_RDPS_SnowDensity_Sfc_RLatLon0.09_PT028H.grib2 2026-04-27 20:48 182K
20260427T18Z_MSC_RDPS_SnowDepth_Sfc_RLatLon0.09_PT028H.grib2 2026-04-27 20:48 704K
20260427T18Z_MSC_RDPS_SoilTemp_DBS-0to10cm_RLatLon0.09_PT028H.grib2 2026-04-27 20:48 231K
20260427T18Z_MSC_RDPS_SoilTemp_Sfc_RLatLon0.09_PT028H.grib2 2026-04-27 20:48 289K
20260427T18Z_MSC_RDPS_SoilVolumetricIceContent_Sfc_RLatLon0.09_PT028H.grib2 2026-04-27 20:48 167K
20260427T18Z_MSC_RDPS_SoilVolumetricWaterContent_DBS-0to10cm_RLatLon0.09_PT028H.grib2 2026-04-27 20:48 262K
20260427T18Z_MSC_RDPS_SoilVolumetricWaterContent_DBS-0to1cm_RLatLon0.09_PT028H.grib2 2026-04-27 20:48 336K
20260427T18Z_MSC_RDPS_SpecificHumidity_AGL-120m_RLatLon0.09_PT028H.grib2 2026-04-27 20:48 491K
20260427T18Z_MSC_RDPS_SpecificHumidity_AGL-2m_RLatLon0.09_PT028H.grib2 2026-04-27 20:48 659K
20260427T18Z_MSC_RDPS_SpecificHumidity_AGL-40m_RLatLon0.09_PT028H.grib2 2026-04-27 20:48 496K
20260427T18Z_MSC_RDPS_SpecificHumidity_AGL-80m_RLatLon0.09_PT028H.grib2 2026-04-27 20:48 492K
20260427T18Z_MSC_RDPS_SpecificHumidity_IsbL-0001_RLatLon0.09_PT028H.grib2 2026-04-27 20:48 348K
20260427T18Z_MSC_RDPS_SpecificHumidity_IsbL-0005_RLatLon0.09_PT028H.grib2 2026-04-27 20:48 359K
20260427T18Z_MSC_RDPS_SpecificHumidity_IsbL-0010_RLatLon0.09_PT028H.grib2 2026-04-27 20:48 400K
20260427T18Z_MSC_RDPS_SpecificHumidity_IsbL-0020_RLatLon0.09_PT028H.grib2 2026-04-27 20:48 390K
20260427T18Z_MSC_RDPS_SpecificHumidity_IsbL-0030_RLatLon0.09_PT028H.grib2 2026-04-27 20:48 481K
20260427T18Z_MSC_RDPS_SpecificHumidity_IsbL-0050_RLatLon0.09_PT028H.grib2 2026-04-27 20:48 466K
20260427T18Z_MSC_RDPS_SpecificHumidity_IsbL-0100_RLatLon0.09_PT028H.grib2 2026-04-27 20:48 354K
20260427T18Z_MSC_RDPS_SpecificHumidity_IsbL-0150_RLatLon0.09_PT028H.grib2 2026-04-27 20:48 385K
20260427T18Z_MSC_RDPS_SpecificHumidity_IsbL-0175_RLatLon0.09_PT028H.grib2 2026-04-27 20:48 449K
20260427T18Z_MSC_RDPS_SpecificHumidity_IsbL-0200_RLatLon0.09_PT028H.grib2 2026-04-27 20:48 459K
20260427T18Z_MSC_RDPS_SpecificHumidity_IsbL-0225_RLatLon0.09_PT028H.grib2 2026-04-27 20:48 464K
20260427T18Z_MSC_RDPS_SpecificHumidity_IsbL-0250_RLatLon0.09_PT028H.grib2 2026-04-27 20:48 566K
20260427T18Z_MSC_RDPS_SpecificHumidity_IsbL-0275_RLatLon0.09_PT028H.grib2 2026-04-27 20:48 480K
20260427T18Z_MSC_RDPS_SpecificHumidity_IsbL-0300_RLatLon0.09_PT028H.grib2 2026-04-27 20:48 452K
20260427T18Z_MSC_RDPS_SpecificHumidity_IsbL-0350_RLatLon0.09_PT028H.grib2 2026-04-27 20:48 570K
20260427T18Z_MSC_RDPS_SpecificHumidity_IsbL-0400_RLatLon0.09_PT028H.grib2 2026-04-27 20:48 529K
20260427T18Z_MSC_RDPS_SpecificHumidity_IsbL-0450_RLatLon0.09_PT028H.grib2 2026-04-27 20:48 581K
20260427T18Z_MSC_RDPS_SpecificHumidity_IsbL-0500_RLatLon0.09_PT028H.grib2 2026-04-27 20:48 518K
20260427T18Z_MSC_RDPS_SpecificHumidity_IsbL-0550_RLatLon0.09_PT028H.grib2 2026-04-27 20:48 591K
20260427T18Z_MSC_RDPS_SpecificHumidity_IsbL-0600_RLatLon0.09_PT028H.grib2 2026-04-27 20:48 643K
20260427T18Z_MSC_RDPS_SpecificHumidity_IsbL-0650_RLatLon0.09_PT028H.grib2 2026-04-27 20:48 559K
20260427T18Z_MSC_RDPS_SpecificHumidity_IsbL-0700_RLatLon0.09_PT028H.grib2 2026-04-27 20:48 603K
20260427T18Z_MSC_RDPS_SpecificHumidity_IsbL-0750_RLatLon0.09_PT028H.grib2 2026-04-27 20:48 659K
20260427T18Z_MSC_RDPS_SpecificHumidity_IsbL-0800_RLatLon0.09_PT028H.grib2 2026-04-27 20:48 740K
20260427T18Z_MSC_RDPS_SpecificHumidity_IsbL-0850_RLatLon0.09_PT028H.grib2 2026-04-27 20:48 675K
20260427T18Z_MSC_RDPS_SpecificHumidity_IsbL-0875_RLatLon0.09_PT028H.grib2 2026-04-27 20:48 696K
20260427T18Z_MSC_RDPS_SpecificHumidity_IsbL-0900_RLatLon0.09_PT028H.grib2 2026-04-27 20:48 706K
20260427T18Z_MSC_RDPS_SpecificHumidity_IsbL-0925_RLatLon0.09_PT028H.grib2 2026-04-27 20:48 710K
20260427T18Z_MSC_RDPS_SpecificHumidity_IsbL-0950_RLatLon0.09_PT028H.grib2 2026-04-27 20:48 708K
20260427T18Z_MSC_RDPS_SpecificHumidity_IsbL-0970_RLatLon0.09_PT028H.grib2 2026-04-27 20:48 697K
20260427T18Z_MSC_RDPS_SpecificHumidity_IsbL-0985_RLatLon0.09_PT028H.grib2 2026-04-27 20:48 688K
20260427T18Z_MSC_RDPS_SpecificHumidity_IsbL-1000_RLatLon0.09_PT028H.grib2 2026-04-27 20:48 682K
20260427T18Z_MSC_RDPS_SpecificHumidity_IsbL-1015_RLatLon0.09_PT028H.grib2 2026-04-27 20:48 673K
20260427T18Z_MSC_RDPS_SpecificHumidity_Sfc_RLatLon0.09_PT028H.grib2 2026-04-27 20:48 339K
20260427T18Z_MSC_RDPS_StormRelativeHelicity_EtaL-10000_RLatLon0.09_PT028H.grib2 2026-04-27 20:48 1.1M
20260427T18Z_MSC_RDPS_StormSeverityIndex_EtaL-10000_RLatLon0.09_PT028H.grib2 2026-04-27 20:48 1.1M
20260427T18Z_MSC_RDPS_Thickness_IsbL-0850to0700_RLatLon0.09_PT028H.grib2 2026-04-27 20:48 178K
20260427T18Z_MSC_RDPS_Thickness_IsbL-1000to0500_RLatLon0.09_PT028H.grib2 2026-04-27 20:48 201K
20260427T18Z_MSC_RDPS_Thickness_IsbL-1000to0850_RLatLon0.09_PT028H.grib2 2026-04-27 20:48 187K
20260427T18Z_MSC_RDPS_TotalCloudCover_Sfc_RLatLon0.09_PT028H.grib2 2026-04-27 20:48 647K
20260427T18Z_MSC_RDPS_TotalTotalsIndex_Sfc_RLatLon0.09_PT028H.grib2 2026-04-27 20:48 2.4M
20260427T18Z_MSC_RDPS_UVIndex-ClearSky_Sfc_RLatLon0.09_PT028H.grib2 2026-04-27 20:48 176K
20260427T18Z_MSC_RDPS_UVIndex_Sfc_RLatLon0.09_PT028H.grib2 2026-04-27 20:48 410K
20260427T18Z_MSC_RDPS_UpwardLongwaveRadiationFlux_NTAtm_RLatLon0.09_PT028H.grib2 2026-04-27 20:48 388K
20260427T18Z_MSC_RDPS_UpwardShortwaveRadiationFlux_NTAtm_RLatLon0.09_PT028H.grib2 2026-04-27 20:48 452K
20260427T18Z_MSC_RDPS_VerticalVelocity_IsbL-0250_RLatLon0.09_PT028H.grib2 2026-04-27 20:48 459K
20260427T18Z_MSC_RDPS_VerticalVelocity_IsbL-0500_RLatLon0.09_PT028H.grib2 2026-04-27 20:48 550K
20260427T18Z_MSC_RDPS_VerticalVelocity_IsbL-0700_RLatLon0.09_PT028H.grib2 2026-04-27 20:48 603K
20260427T18Z_MSC_RDPS_VerticalVelocity_IsbL-0850_RLatLon0.09_PT028H.grib2 2026-04-27 20:48 657K
20260427T18Z_MSC_RDPS_VerticalWindShear_EtaL-6500_RLatLon0.09_PT028H.grib2 2026-04-27 20:48 1.2M
20260427T18Z_MSC_RDPS_WindChill_Sfc_RLatLon0.09_PT028H.grib2 2026-04-27 20:48 1.1M
20260427T18Z_MSC_RDPS_WindDir_AGL-10m_RLatLon0.09_PT028H.grib2 2026-04-27 20:48 957K
20260427T18Z_MSC_RDPS_WindDir_AGL-120m_RLatLon0.09_PT028H.grib2 2026-04-27 20:48 607K
20260427T18Z_MSC_RDPS_WindDir_AGL-40m_RLatLon0.09_PT028H.grib2 2026-04-27 20:48 628K
20260427T18Z_MSC_RDPS_WindDir_AGL-80m_RLatLon0.09_PT028H.grib2 2026-04-27 20:48 616K
20260427T18Z_MSC_RDPS_WindDir_IsbL-0001_RLatLon0.09_PT028H.grib2 2026-04-27 20:48 287K
20260427T18Z_MSC_RDPS_WindDir_IsbL-0005_RLatLon0.09_PT028H.grib2 2026-04-27 20:48 349K
20260427T18Z_MSC_RDPS_WindDir_IsbL-0010_RLatLon0.09_PT028H.grib2 2026-04-27 20:48 390K
20260427T18Z_MSC_RDPS_WindDir_IsbL-0020_RLatLon0.09_PT028H.grib2 2026-04-27 20:48 424K
20260427T18Z_MSC_RDPS_WindDir_IsbL-0030_RLatLon0.09_PT028H.grib2 2026-04-27 20:48 402K
20260427T18Z_MSC_RDPS_WindDir_IsbL-0050_RLatLon0.09_PT028H.grib2 2026-04-27 20:48 415K
20260427T18Z_MSC_RDPS_WindDir_IsbL-0100_RLatLon0.09_PT028H.grib2 2026-04-27 20:48 417K
20260427T18Z_MSC_RDPS_WindDir_IsbL-0150_RLatLon0.09_PT028H.grib2 2026-04-27 20:48 416K
20260427T18Z_MSC_RDPS_WindDir_IsbL-0175_RLatLon0.09_PT028H.grib2 2026-04-27 20:48 436K
20260427T18Z_MSC_RDPS_WindDir_IsbL-0200_RLatLon0.09_PT028H.grib2 2026-04-27 20:48 450K
20260427T18Z_MSC_RDPS_WindDir_IsbL-0225_RLatLon0.09_PT028H.grib2 2026-04-27 20:48 450K
20260427T18Z_MSC_RDPS_WindDir_IsbL-0250_RLatLon0.09_PT028H.grib2 2026-04-27 20:48 453K
20260427T18Z_MSC_RDPS_WindDir_IsbL-0275_RLatLon0.09_PT028H.grib2 2026-04-27 20:48 474K
20260427T18Z_MSC_RDPS_WindDir_IsbL-0300_RLatLon0.09_PT028H.grib2 2026-04-27 20:48 471K
20260427T18Z_MSC_RDPS_WindDir_IsbL-0350_RLatLon0.09_PT028H.grib2 2026-04-27 20:48 491K
20260427T18Z_MSC_RDPS_WindDir_IsbL-0400_RLatLon0.09_PT028H.grib2 2026-04-27 20:48 512K
20260427T18Z_MSC_RDPS_WindDir_IsbL-0450_RLatLon0.09_PT028H.grib2 2026-04-27 20:48 529K
20260427T18Z_MSC_RDPS_WindDir_IsbL-0500_RLatLon0.09_PT028H.grib2 2026-04-27 20:48 544K
20260427T18Z_MSC_RDPS_WindDir_IsbL-0550_RLatLon0.09_PT028H.grib2 2026-04-27 20:48 563K
20260427T18Z_MSC_RDPS_WindDir_IsbL-0600_RLatLon0.09_PT028H.grib2 2026-04-27 20:48 588K
20260427T18Z_MSC_RDPS_WindDir_IsbL-0650_RLatLon0.09_PT028H.grib2 2026-04-27 20:48 626K
20260427T18Z_MSC_RDPS_WindDir_IsbL-0700_RLatLon0.09_PT028H.grib2 2026-04-27 20:48 669K
20260427T18Z_MSC_RDPS_WindDir_IsbL-0750_RLatLon0.09_PT028H.grib2 2026-04-27 20:48 715K
20260427T18Z_MSC_RDPS_WindDir_IsbL-0800_RLatLon0.09_PT028H.grib2 2026-04-27 20:48 781K
20260427T18Z_MSC_RDPS_WindDir_IsbL-0850_RLatLon0.09_PT028H.grib2 2026-04-27 20:48 856K
20260427T18Z_MSC_RDPS_WindDir_IsbL-0875_RLatLon0.09_PT028H.grib2 2026-04-27 20:48 881K
20260427T18Z_MSC_RDPS_WindDir_IsbL-0900_RLatLon0.09_PT028H.grib2 2026-04-27 20:48 899K
20260427T18Z_MSC_RDPS_WindDir_IsbL-0925_RLatLon0.09_PT028H.grib2 2026-04-27 20:48 909K
20260427T18Z_MSC_RDPS_WindDir_IsbL-0950_RLatLon0.09_PT028H.grib2 2026-04-27 20:48 910K
20260427T18Z_MSC_RDPS_WindDir_IsbL-0970_RLatLon0.09_PT028H.grib2 2026-04-27 20:48 915K
20260427T18Z_MSC_RDPS_WindDir_IsbL-0985_RLatLon0.09_PT028H.grib2 2026-04-27 20:48 923K
20260427T18Z_MSC_RDPS_WindDir_IsbL-1000_RLatLon0.09_PT028H.grib2 2026-04-27 20:48 934K
20260427T18Z_MSC_RDPS_WindDir_IsbL-1015_RLatLon0.09_PT028H.grib2 2026-04-27 20:48 949K
20260427T18Z_MSC_RDPS_WindGust-Max_AGL-10m_RLatLon0.09_PT028H.grib2 2026-04-27 20:48 945K
20260427T18Z_MSC_RDPS_WindGust-Min_AGL-10m_RLatLon0.09_PT028H.grib2 2026-04-27 20:48 1.0M
20260427T18Z_MSC_RDPS_WindGust_AGL-10m_RLatLon0.09_PT028H.grib2 2026-04-27 20:48 1.0M
20260427T18Z_MSC_RDPS_WindSpeed_AGL-10m_RLatLon0.09_PT028H.grib2 2026-04-27 20:48 838K
20260427T18Z_MSC_RDPS_WindSpeed_AGL-120m_RLatLon0.09_PT028H.grib2 2026-04-27 20:48 545K
20260427T18Z_MSC_RDPS_WindSpeed_AGL-40m_RLatLon0.09_PT028H.grib2 2026-04-27 20:48 538K
20260427T18Z_MSC_RDPS_WindSpeed_AGL-80m_RLatLon0.09_PT028H.grib2 2026-04-27 20:48 546K
20260427T18Z_MSC_RDPS_WindSpeed_IsbL-0001_RLatLon0.09_PT028H.grib2 2026-04-27 20:48 256K
20260427T18Z_MSC_RDPS_WindSpeed_IsbL-0005_RLatLon0.09_PT028H.grib2 2026-04-27 20:48 299K
20260427T18Z_MSC_RDPS_WindSpeed_IsbL-0010_RLatLon0.09_PT028H.grib2 2026-04-27 20:48 313K
20260427T18Z_MSC_RDPS_WindSpeed_IsbL-0020_RLatLon0.09_PT028H.grib2 2026-04-27 20:48 332K
20260427T18Z_MSC_RDPS_WindSpeed_IsbL-0030_RLatLon0.09_PT028H.grib2 2026-04-27 20:48 323K
20260427T18Z_MSC_RDPS_WindSpeed_IsbL-0050_RLatLon0.09_PT028H.grib2 2026-04-27 20:48 354K
20260427T18Z_MSC_RDPS_WindSpeed_IsbL-0100_RLatLon0.09_PT028H.grib2 2026-04-27 20:48 490K
20260427T18Z_MSC_RDPS_WindSpeed_IsbL-0150_RLatLon0.09_PT028H.grib2 2026-04-27 20:48 392K
20260427T18Z_MSC_RDPS_WindSpeed_IsbL-0175_RLatLon0.09_PT028H.grib2 2026-04-27 20:48 441K
20260427T18Z_MSC_RDPS_WindSpeed_IsbL-0200_RLatLon0.09_PT028H.grib2 2026-04-27 20:48 458K
20260427T18Z_MSC_RDPS_WindSpeed_IsbL-0225_RLatLon0.09_PT028H.grib2 2026-04-27 20:48 463K
20260427T18Z_MSC_RDPS_WindSpeed_IsbL-0250_RLatLon0.09_PT028H.grib2 2026-04-27 20:48 465K
20260427T18Z_MSC_RDPS_WindSpeed_IsbL-0275_RLatLon0.09_PT028H.grib2 2026-04-27 20:48 483K
20260427T18Z_MSC_RDPS_WindSpeed_IsbL-0300_RLatLon0.09_PT028H.grib2 2026-04-27 20:48 481K
20260427T18Z_MSC_RDPS_WindSpeed_IsbL-0350_RLatLon0.09_PT028H.grib2 2026-04-27 20:48 488K
20260427T18Z_MSC_RDPS_WindSpeed_IsbL-0400_RLatLon0.09_PT028H.grib2 2026-04-27 20:48 472K
20260427T18Z_MSC_RDPS_WindSpeed_IsbL-0450_RLatLon0.09_PT028H.grib2 2026-04-27 20:48 470K
20260427T18Z_MSC_RDPS_WindSpeed_IsbL-0500_RLatLon0.09_PT028H.grib2 2026-04-27 20:48 469K
20260427T18Z_MSC_RDPS_WindSpeed_IsbL-0550_RLatLon0.09_PT028H.grib2 2026-04-27 20:48 470K
20260427T18Z_MSC_RDPS_WindSpeed_IsbL-0600_RLatLon0.09_PT028H.grib2 2026-04-27 20:48 596K
20260427T18Z_MSC_RDPS_WindSpeed_IsbL-0650_RLatLon0.09_PT028H.grib2 2026-04-27 20:48 616K
20260427T18Z_MSC_RDPS_WindSpeed_IsbL-0700_RLatLon0.09_PT028H.grib2 2026-04-27 20:48 636K
20260427T18Z_MSC_RDPS_WindSpeed_IsbL-0750_RLatLon0.09_PT028H.grib2 2026-04-27 20:48 709K
20260427T18Z_MSC_RDPS_WindSpeed_IsbL-0800_RLatLon0.09_PT028H.grib2 2026-04-27 20:48 755K
20260427T18Z_MSC_RDPS_WindSpeed_IsbL-0850_RLatLon0.09_PT028H.grib2 2026-04-27 20:48 766K
20260427T18Z_MSC_RDPS_WindSpeed_IsbL-0875_RLatLon0.09_PT028H.grib2 2026-04-27 20:48 786K
20260427T18Z_MSC_RDPS_WindSpeed_IsbL-0900_RLatLon0.09_PT028H.grib2 2026-04-27 20:48 801K
20260427T18Z_MSC_RDPS_WindSpeed_IsbL-0925_RLatLon0.09_PT028H.grib2 2026-04-27 20:48 858K
20260427T18Z_MSC_RDPS_WindSpeed_IsbL-0950_RLatLon0.09_PT028H.grib2 2026-04-27 20:48 858K
20260427T18Z_MSC_RDPS_WindSpeed_IsbL-0970_RLatLon0.09_PT028H.grib2 2026-04-27 20:48 856K
20260427T18Z_MSC_RDPS_WindSpeed_IsbL-0985_RLatLon0.09_PT028H.grib2 2026-04-27 20:48 853K
20260427T18Z_MSC_RDPS_WindSpeed_IsbL-1000_RLatLon0.09_PT028H.grib2 2026-04-27 20:48 848K
20260427T18Z_MSC_RDPS_WindSpeed_IsbL-1015_RLatLon0.09_PT028H.grib2 2026-04-27 20:48 839K
20260427T18Z_MSC_RDPS_WindU_AGL-10m_RLatLon0.09_PT028H.grib2 2026-04-27 20:48 434K
20260427T18Z_MSC_RDPS_WindU_AGL-120m_RLatLon0.09_PT028H.grib2 2026-04-27 20:48 416K
20260427T18Z_MSC_RDPS_WindU_AGL-40m_RLatLon0.09_PT028H.grib2 2026-04-27 20:48 419K
20260427T18Z_MSC_RDPS_WindU_AGL-80m_RLatLon0.09_PT028H.grib2 2026-04-27 20:48 418K
20260427T18Z_MSC_RDPS_WindU_IsbL-0001_RLatLon0.09_PT028H.grib2 2026-04-27 20:48 297K
20260427T18Z_MSC_RDPS_WindU_IsbL-0005_RLatLon0.09_PT028H.grib2 2026-04-27 20:48 336K
20260427T18Z_MSC_RDPS_WindU_IsbL-0010_RLatLon0.09_PT028H.grib2 2026-04-27 20:48 303K
20260427T18Z_MSC_RDPS_WindU_IsbL-0020_RLatLon0.09_PT028H.grib2 2026-04-27 20:48 358K
20260427T18Z_MSC_RDPS_WindU_IsbL-0030_RLatLon0.09_PT028H.grib2 2026-04-27 20:48 354K
20260427T18Z_MSC_RDPS_WindU_IsbL-0050_RLatLon0.09_PT028H.grib2 2026-04-27 20:48 382K
20260427T18Z_MSC_RDPS_WindU_IsbL-0100_RLatLon0.09_PT028H.grib2 2026-04-27 20:48 346K
20260427T18Z_MSC_RDPS_WindU_IsbL-0150_RLatLon0.09_PT028H.grib2 2026-04-27 20:48 408K
20260427T18Z_MSC_RDPS_WindU_IsbL-0175_RLatLon0.09_PT028H.grib2 2026-04-27 20:48 434K
20260427T18Z_MSC_RDPS_WindU_IsbL-0200_RLatLon0.09_PT028H.grib2 2026-04-27 20:48 350K
20260427T18Z_MSC_RDPS_WindU_IsbL-0225_RLatLon0.09_PT028H.grib2 2026-04-27 20:48 353K
20260427T18Z_MSC_RDPS_WindU_IsbL-0250_RLatLon0.09_PT028H.grib2 2026-04-27 20:48 353K
20260427T18Z_MSC_RDPS_WindU_IsbL-0275_RLatLon0.09_PT028H.grib2 2026-04-27 20:48 369K
20260427T18Z_MSC_RDPS_WindU_IsbL-0300_RLatLon0.09_PT028H.grib2 2026-04-27 20:48 365K
20260427T18Z_MSC_RDPS_WindU_IsbL-0350_RLatLon0.09_PT028H.grib2 2026-04-27 20:48 475K
20260427T18Z_MSC_RDPS_WindU_IsbL-0400_RLatLon0.09_PT028H.grib2 2026-04-27 20:48 475K
20260427T18Z_MSC_RDPS_WindU_IsbL-0450_RLatLon0.09_PT028H.grib2 2026-04-27 20:48 474K
20260427T18Z_MSC_RDPS_WindU_IsbL-0500_RLatLon0.09_PT028H.grib2 2026-04-27 20:48 457K
20260427T18Z_MSC_RDPS_WindU_IsbL-0550_RLatLon0.09_PT028H.grib2 2026-04-27 20:48 459K
20260427T18Z_MSC_RDPS_WindU_IsbL-0600_RLatLon0.09_PT028H.grib2 2026-04-27 20:48 468K
20260427T18Z_MSC_RDPS_WindU_IsbL-0650_RLatLon0.09_PT028H.grib2 2026-04-27 20:48 486K
20260427T18Z_MSC_RDPS_WindU_IsbL-0700_RLatLon0.09_PT028H.grib2 2026-04-27 20:48 505K
20260427T18Z_MSC_RDPS_WindU_IsbL-0750_RLatLon0.09_PT028H.grib2 2026-04-27 20:48 532K
20260427T18Z_MSC_RDPS_WindU_IsbL-0800_RLatLon0.09_PT028H.grib2 2026-04-27 20:48 573K
20260427T18Z_MSC_RDPS_WindU_IsbL-0850_RLatLon0.09_PT028H.grib2 2026-04-27 20:48 631K
20260427T18Z_MSC_RDPS_WindU_IsbL-0875_RLatLon0.09_PT028H.grib2 2026-04-27 20:48 648K
20260427T18Z_MSC_RDPS_WindU_IsbL-0900_RLatLon0.09_PT028H.grib2 2026-04-27 20:48 658K
20260427T18Z_MSC_RDPS_WindU_IsbL-0925_RLatLon0.09_PT028H.grib2 2026-04-27 20:48 664K
20260427T18Z_MSC_RDPS_WindU_IsbL-0950_RLatLon0.09_PT028H.grib2 2026-04-27 20:48 654K
20260427T18Z_MSC_RDPS_WindU_IsbL-0970_RLatLon0.09_PT028H.grib2 2026-04-27 20:48 653K
20260427T18Z_MSC_RDPS_WindU_IsbL-0985_RLatLon0.09_PT028H.grib2 2026-04-27 20:48 652K
20260427T18Z_MSC_RDPS_WindU_IsbL-1000_RLatLon0.09_PT028H.grib2 2026-04-27 20:48 648K
20260427T18Z_MSC_RDPS_WindU_IsbL-1015_RLatLon0.09_PT028H.grib2 2026-04-27 20:48 780K
20260427T18Z_MSC_RDPS_WindV_AGL-10m_RLatLon0.09_PT028H.grib2 2026-04-27 20:48 433K
20260427T18Z_MSC_RDPS_WindV_AGL-120m_RLatLon0.09_PT028H.grib2 2026-04-27 20:48 531K
20260427T18Z_MSC_RDPS_WindV_AGL-40m_RLatLon0.09_PT028H.grib2 2026-04-27 20:48 534K
20260427T18Z_MSC_RDPS_WindV_AGL-80m_RLatLon0.09_PT028H.grib2 2026-04-27 20:48 532K
20260427T18Z_MSC_RDPS_WindV_IsbL-0001_RLatLon0.09_PT028H.grib2 2026-04-27 20:48 247K
20260427T18Z_MSC_RDPS_WindV_IsbL-0005_RLatLon0.09_PT028H.grib2 2026-04-27 20:48 292K
20260427T18Z_MSC_RDPS_WindV_IsbL-0010_RLatLon0.09_PT028H.grib2 2026-04-27 20:48 304K
20260427T18Z_MSC_RDPS_WindV_IsbL-0020_RLatLon0.09_PT028H.grib2 2026-04-27 20:48 322K
20260427T18Z_MSC_RDPS_WindV_IsbL-0030_RLatLon0.09_PT028H.grib2 2026-04-27 20:48 319K
20260427T18Z_MSC_RDPS_WindV_IsbL-0050_RLatLon0.09_PT028H.grib2 2026-04-27 20:48 349K
20260427T18Z_MSC_RDPS_WindV_IsbL-0100_RLatLon0.09_PT028H.grib2 2026-04-27 20:48 438K
20260427T18Z_MSC_RDPS_WindV_IsbL-0150_RLatLon0.09_PT028H.grib2 2026-04-27 20:48 406K
20260427T18Z_MSC_RDPS_WindV_IsbL-0175_RLatLon0.09_PT028H.grib2 2026-04-27 20:48 432K
20260427T18Z_MSC_RDPS_WindV_IsbL-0200_RLatLon0.09_PT028H.grib2 2026-04-27 20:48 347K
20260427T18Z_MSC_RDPS_WindV_IsbL-0225_RLatLon0.09_PT028H.grib2 2026-04-27 20:48 350K
20260427T18Z_MSC_RDPS_WindV_IsbL-0250_RLatLon0.09_PT028H.grib2 2026-04-27 20:48 351K
20260427T18Z_MSC_RDPS_WindV_IsbL-0275_RLatLon0.09_PT028H.grib2 2026-04-27 20:48 365K
20260427T18Z_MSC_RDPS_WindV_IsbL-0300_RLatLon0.09_PT028H.grib2 2026-04-27 20:48 363K
20260427T18Z_MSC_RDPS_WindV_IsbL-0350_RLatLon0.09_PT028H.grib2 2026-04-27 20:48 369K
20260427T18Z_MSC_RDPS_WindV_IsbL-0400_RLatLon0.09_PT028H.grib2 2026-04-27 20:48 370K
20260427T18Z_MSC_RDPS_WindV_IsbL-0450_RLatLon0.09_PT028H.grib2 2026-04-27 20:48 368K
20260427T18Z_MSC_RDPS_WindV_IsbL-0500_RLatLon0.09_PT028H.grib2 2026-04-27 20:48 472K
20260427T18Z_MSC_RDPS_WindV_IsbL-0550_RLatLon0.09_PT028H.grib2 2026-04-27 20:48 473K
20260427T18Z_MSC_RDPS_WindV_IsbL-0600_RLatLon0.09_PT028H.grib2 2026-04-27 20:48 482K
20260427T18Z_MSC_RDPS_WindV_IsbL-0650_RLatLon0.09_PT028H.grib2 2026-04-27 20:48 498K
20260427T18Z_MSC_RDPS_WindV_IsbL-0700_RLatLon0.09_PT028H.grib2 2026-04-27 20:48 516K
20260427T18Z_MSC_RDPS_WindV_IsbL-0750_RLatLon0.09_PT028H.grib2 2026-04-27 20:48 540K
20260427T18Z_MSC_RDPS_WindV_IsbL-0800_RLatLon0.09_PT028H.grib2 2026-04-27 20:48 577K
20260427T18Z_MSC_RDPS_WindV_IsbL-0850_RLatLon0.09_PT028H.grib2 2026-04-27 20:48 624K
20260427T18Z_MSC_RDPS_WindV_IsbL-0875_RLatLon0.09_PT028H.grib2 2026-04-27 20:48 642K
20260427T18Z_MSC_RDPS_WindV_IsbL-0900_RLatLon0.09_PT028H.grib2 2026-04-27 20:48 654K
20260427T18Z_MSC_RDPS_WindV_IsbL-0925_RLatLon0.09_PT028H.grib2 2026-04-27 20:48 654K
20260427T18Z_MSC_RDPS_WindV_IsbL-0950_RLatLon0.09_PT028H.grib2 2026-04-27 20:48 654K
20260427T18Z_MSC_RDPS_WindV_IsbL-0970_RLatLon0.09_PT028H.grib2 2026-04-27 20:48 652K
20260427T18Z_MSC_RDPS_WindV_IsbL-0985_RLatLon0.09_PT028H.grib2 2026-04-27 20:48 789K
20260427T18Z_MSC_RDPS_WindV_IsbL-1000_RLatLon0.09_PT028H.grib2 2026-04-27 20:48 784K
20260427T18Z_MSC_RDPS_WindV_IsbL-1015_RLatLon0.09_PT028H.grib2 2026-04-27 20:48 779K